Time,TemperatureF,DewpointF,PressureIn,WindDirection,WindDirectionDegrees,WindSpeedMPH,WindSpeedGustMPH,Humidity,HourlyPrecipIn,Conditions,Clouds,dailyrainin,SoftwareType,DateUTC
2013-12-04 00:02:00,29.1,28.4,29.68,NE,35,11.0,14.0,97,0.00,,,0.00,Wunderground v.1.15,2013-12-04 06:02:00,
2013-12-04 00:07:00,29.1,28.4,29.68,NE,36,12.0,15.0,97,0.00,,,0.00,Wunderground v.1.15,2013-12-04 06:07:00,
2013-12-04 00:13:00,29.2,28.5,29.69,NNE,19,9.0,11.0,97,0.00,,,0.00,Wunderground v.1.15,2013-12-04 06:13:00,
2013-12-04 00:18:00,29.3,28.6,29.70,North,360,8.0,11.0,97,0.00,,,0.00,Wunderground v.1.15,2013-12-04 06:18:00,
2013-12-04 00:24:00,29.4,28.7,29.70,NNE,13,8.0,9.0,97,0.00,,,0.00,Wunderground v.1.15,2013-12-04 06:24:00,
2013-12-04 00:30:00,29.4,28.7,29.72,North,350,6.0,6.0,97,0.00,,,0.00,Wunderground v.1.15,2013-12-04 06:30:00,
2013-12-04 00:35:00,29.4,28.7,29.72,North,355,6.0,8.0,97,0.00,,,0.00,Wunderground v.1.15,2013-12-04 06:35:00,
2013-12-04 00:41:00,29.4,28.7,29.72,North,360,5.0,6.0,97,0.00,,,0.00,Wunderground v.1.15,2013-12-04 06:41:00,
2013-12-04 00:47:00,29.4,28.7,29.72,North,5,5.0,6.0,97,0.00,,,0.00,Wunderground v.1.15,2013-12-04 06:47:00,
2013-12-04 00:53:00,29.4,28.7,29.72,North,350,5.0,8.0,97,0.00,,,0.00,Wunderground v.1.15,2013-12-04 06:53:00,
2013-12-04 00:59:00,29.4,28.7,29.72,NNW,344,5.0,8.0,97,0.00,,,0.00,Wunderground v.1.15,2013-12-04 06:59:00,
2013-12-04 01:04:00,29.4,28.7,29.73,North,351,6.0,9.0,97,0.00,,,0.00,Wunderground v.1.15,2013-12-04 07:04:00,
2013-12-04 01:10:00,29.4,28.7,29.72,North,360,8.0,8.0,97,0.00,,,0.00,Wunderground v.1.15,2013-12-04 07:10:00,
2013-12-04 01:16:00,29.4,28.7,29.72,North,5,8.0,9.0,97,0.00,,,0.00,Wunderground v.1.15,2013-12-04 07:16:00,
2013-12-04 01:21:00,29.4,28.7,29.72,North,351,9.0,9.0,97,0.00,,,0.00,Wunderground v.1.15,2013-12-04 07:21:00,
2013-12-04 01:27:00,29.4,28.7,29.72,North,350,6.0,9.0,97,0.00,,,0.00,Wunderground v.1.15,2013-12-04 07:27:00,
2013-12-04 01:33:00,29.4,28.7,29.72,NNW,343,5.0,9.0,97,0.00,,,0.00,Wunderground v.1.15,2013-12-04 07:33:00,
2013-12-04 01:38:00,29.3,28.6,29.72,NNW,339,9.0,9.0,97,0.00,,,0.00,Wunderground v.1.15,2013-12-04 07:38:00,
2013-12-04 01:44:00,29.2,28.5,29.72,NNW,330,9.0,9.0,97,0.00,,,0.00,Wunderground v.1.15,2013-12-04 07:44:00,
2013-12-04 01:50:00,29.1,28.1,29.72,NNW,327,8.0,8.0,96,0.00,,,0.00,Wunderground v.1.15,2013-12-04 07:50:00,
2013-12-04 01:55:00,29.0,28.0,29.72,NNW,337,10.0,10.0,96,0.00,,,0.00,Wunderground v.1.15,2013-12-04 07:55:00,
2013-12-04 02:01:00,29.0,28.0,29.72,NNW,333,8.0,10.0,96,0.00,,,0.00,Wunderground v.1.15,2013-12-04 08:01:00,
2013-12-04 02:06:00,29.0,28.0,29.72,NNW,341,8.0,11.0,96,0.00,,,0.00,Wunderground v.1.15,2013-12-04 08:06:00,
2013-12-04 02:11:00,28.9,27.9,29.72,NNW,340,8.0,13.0,96,0.00,,,0.00,Wunderground v.1.15,2013-12-04 08:11:00,
2013-12-04 02:16:00,28.9,28.2,29.71,North,349,8.0,13.0,97,0.00,,,0.00,Wunderground v.1.15,2013-12-04 08:16:00,
2013-12-04 02:21:00,28.8,28.1,29.70,North,355,11.0,13.0,97,0.00,,,0.00,Wunderground v.1.15,2013-12-04 08:21:00,
2013-12-04 02:26:00,28.8,28.1,29.70,NNW,348,9.0,13.0,97,0.00,,,0.00,Wunderground v.1.15,2013-12-04 08:26:00,
2013-12-04 02:31:00,28.8,28.1,29.71,North,355,11.0,12.0,97,0.00,,,0.00,Wunderground v.1.15,2013-12-04 08:31:00,
2013-12-04 02:36:00,28.8,28.1,29.70,NNW,340,11.0,12.0,97,0.00,,,0.00,Wunderground v.1.15,2013-12-04 08:36:00,
2013-12-04 02:41:00,28.8,28.1,29.70,North,350,10.0,12.0,97,0.00,,,0.00,Wunderground v.1.15,2013-12-04 08:41:00,
2013-12-04 02:46:00,28.8,28.1,29.71,NNW,346,10.0,12.0,97,0.00,,,0.00,Wunderground v.1.15,2013-12-04 08:46:00,
2013-12-04 02:51:00,28.8,28.1,29.71,NNW,348,9.0,11.0,97,0.00,,,0.00,Wunderground v.1.15,2013-12-04 08:51:00,
2013-12-04 02:56:00,28.7,28.0,29.70,NNW,342,8.0,12.0,97,0.00,,,0.00,Wunderground v.1.15,2013-12-04 08:56:00,
2013-12-04 03:01:00,28.6,27.9,29.70,NNW,348,10.0,10.0,97,0.00,,,0.00,Wunderground v.1.15,2013-12-04 09:01:00,
2013-12-04 03:06:00,28.6,27.9,29.70,NNW,336,9.0,11.0,97,0.00,,,0.00,Wunderground v.1.15,2013-12-04 09:06:00,
2013-12-04 03:11:00,28.7,28.0,29.70,NNW,342,6.0,8.0,97,0.00,,,0.00,Wunderground v.1.15,2013-12-04 09:11:00,
2013-12-04 03:16:00,28.7,28.0,29.70,NNW,334,9.0,11.0,97,0.00,,,0.00,Wunderground v.1.15,2013-12-04 09:16:00,
2013-12-04 03:21:00,28.6,27.9,29.70,NNW,341,6.0,9.0,97,0.00,,,0.00,Wunderground v.1.15,2013-12-04 09:21:00,
2013-12-04 03:26:00,28.5,27.5,29.70,NNW,340,8.0,11.0,96,0.00,,,0.00,Wunderground v.1.15,2013-12-04 09:26:00,
2013-12-04 03:31:00,28.4,27.4,29.69,NNW,347,9.0,10.0,96,0.00,,,0.00,Wunderground v.1.15,2013-12-04 09:31:00,
2013-12-04 03:36:00,28.4,27.4,29.69,NNW,348,8.0,10.0,96,0.00,,,0.00,Wunderground v.1.15,2013-12-04 09:36:00,
2013-12-04 03:41:00,28.4,27.4,29.69,North,360,9.0,9.0,96,0.00,,,0.00,Wunderground v.1.15,2013-12-04 09:41:00,
2013-12-04 03:46:00,28.4,27.4,29.68,NNW,334,8.0,11.0,96,0.00,,,0.00,Wunderground v.1.15,2013-12-04 09:46:00,
2013-12-04 03:51:00,28.4,27.4,29.68,North,355,8.0,8.0,96,0.00,,,0.00,Wunderground v.1.15,2013-12-04 09:51:00,
2013-12-04 03:56:00,28.4,27.4,29.67,North,355,9.0,10.0,96,0.00,,,0.00,Wunderground v.1.15,2013-12-04 09:56:00,
2013-12-04 04:01:00,28.4,27.4,29.67,North,355,6.0,8.0,96,0.00,,,0.00,Wunderground v.1.15,2013-12-04 10:01:00,
2013-12-04 04:06:00,28.5,27.5,29.67,North,355,9.0,10.0,96,0.00,,,0.00,Wunderground v.1.15,2013-12-04 10:06:00,
2013-12-04 04:11:00,28.5,27.5,29.66,NNE,22,9.0,10.0,96,0.00,,,0.00,Wunderground v.1.15,2013-12-04 10:11:00,
2013-12-04 04:16:00,28.6,27.6,29.67,North,360,8.0,10.0,96,0.00,,,0.00,Wunderground v.1.15,2013-12-04 10:16:00,
2013-12-04 04:21:00,28.6,27.9,29.67,North,5,8.0,9.0,97,0.00,,,0.00,Wunderground v.1.15,2013-12-04 10:21:00,
2013-12-04 04:26:00,28.7,28.0,29.67,North,5,5.0,9.0,97,0.00,,,0.00,Wunderground v.1.15,2013-12-04 10:26:00,
2013-12-04 04:31:00,28.8,28.1,29.66,North,355,6.0,6.0,97,0.00,,,0.00,Wunderground v.1.15,2013-12-04 10:31:00,
2013-12-04 04:36:00,28.8,28.1,29.66,North,349,6.0,9.0,97,0.00,,,0.00,Wunderground v.1.15,2013-12-04 10:36:00,
2013-12-04 04:41:00,28.8,28.1,29.66,North,355,8.0,9.0,97,0.00,,,0.00,Wunderground v.1.15,2013-12-04 10:41:00,
2013-12-04 04:46:00,28.8,28.1,29.66,North,355,6.0,9.0,97,0.00,,,0.00,Wunderground v.1.15,2013-12-04 10:46:00,
2013-12-04 04:51:00,28.8,28.1,29.66,North,10,7.0,8.0,97,0.00,,,0.00,Wunderground v.1.15,2013-12-04 10:51:00,
2013-12-04 04:56:00,28.9,28.2,29.66,North,5,6.0,10.0,97,0.00,,,0.00,Wunderground v.1.15,2013-12-04 10:56:00,
2013-12-04 05:01:00,29.0,28.3,29.66,NNW,344,8.0,9.0,97,0.00,,,0.00,Wunderground v.1.15,2013-12-04 11:01:00,
2013-12-04 05:06:00,29.0,28.3,29.66,NNW,348,8.0,10.0,97,0.00,,,0.00,Wunderground v.1.15,2013-12-04 11:06:00,
2013-12-04 05:11:00,29.1,28.4,29.66,North,355,8.0,8.0,97,0.00,,,0.00,Wunderground v.1.15,2013-12-04 11:11:00,
2013-12-04 05:16:00,29.2,28.5,29.65,North,350,8.0,10.0,97,0.00,,,0.00,Wunderground v.1.15,2013-12-04 11:16:00,
2013-12-04 05:21:00,29.3,28.6,29.65,NNW,344,9.0,9.0,97,0.00,,,0.00,Wunderground v.1.15,2013-12-04 11:21:00,
2013-12-04 05:26:00,29.3,28.6,29.66,NW,322,6.0,10.0,97,0.00,,,0.00,Wunderground v.1.15,2013-12-04 11:26:00,
2013-12-04 05:31:00,29.2,28.5,29.66,NNW,330,9.0,11.0,97,0.00,,,0.00,Wunderground v.1.15,2013-12-04 11:31:00,
2013-12-04 05:36:00,29.2,28.2,29.66,NW,323,5.0,12.0,96,0.00,,,0.00,Wunderground v.1.15,2013-12-04 11:36:00,
2013-12-04 05:41:00,29.1,28.1,29.67,NW,320,9.0,10.0,96,0.00,,,0.00,Wunderground v.1.15,2013-12-04 11:41:00,
2013-12-04 05:46:00,29.0,28.0,29.67,NW,315,6.0,10.0,96,0.00,,,0.00,Wunderground v.1.15,2013-12-04 11:46:00,
2013-12-04 05:51:00,28.9,28.2,29.67,NNW,331,6.0,10.0,97,0.00,,,0.00,Wunderground v.1.15,2013-12-04 11:51:00,
2013-12-04 05:56:00,28.6,27.9,29.67,NNW,334,8.0,11.0,97,0.00,,,0.00,Wunderground v.1.15,2013-12-04 11:56:00,
2013-12-04 06:01:00,28.5,27.8,29.67,NNW,338,8.0,10.0,97,0.00,,,0.00,Wunderground v.1.15,2013-12-04 12:01:00,
2013-12-04 06:06:00,28.5,27.5,29.66,NNW,343,6.0,10.0,96,0.00,,,0.00,Wunderground v.1.15,2013-12-04 12:06:00,
2013-12-04 06:12:00,28.5,27.5,29.66,NNW,344,9.0,11.0,96,0.00,,,0.00,Wunderground v.1.15,2013-12-04 12:12:00,
2013-12-04 06:17:00,28.5,27.5,29.66,NNW,335,9.0,11.0,96,0.00,,,0.00,Wunderground v.1.15,2013-12-04 12:17:00,
2013-12-04 06:22:00,28.5,27.5,29.66,NNW,330,9.0,10.0,96,0.00,,,0.00,Wunderground v.1.15,2013-12-04 12:22:00,
2013-12-04 06:27:00,28.4,27.7,29.66,NNW,335,5.0,11.0,97,0.00,,,0.00,Wunderground v.1.15,2013-12-04 12:27:00,
2013-12-04 06:32:00,28.3,27.3,29.66,NNW,332,9.0,9.0,96,0.00,,,0.00,Wunderground v.1.15,2013-12-04 12:32:00,
2013-12-04 06:37:00,28.3,27.3,29.67,NW,326,8.0,10.0,96,0.00,,,0.00,Wunderground v.1.15,2013-12-04 12:37:00,
2013-12-04 06:42:00,28.2,27.2,29.67,NW,320,8.0,9.0,96,0.00,,,0.00,Wunderground v.1.15,2013-12-04 12:42:00,
2013-12-04 06:47:00,28.1,27.1,29.67,NNW,328,6.0,10.0,96,0.00,,,0.00,Wunderground v.1.15,2013-12-04 12:47:00,
2013-12-04 06:52:00,28.0,27.0,29.67,NW,315,4.0,9.0,96,0.00,,,0.00,Wunderground v.1.15,2013-12-04 12:52:00,
2013-12-04 06:57:00,27.9,26.9,29.67,NNW,339,5.0,9.0,96,0.00,,,0.00,Wunderground v.1.15,2013-12-04 12:57:00,
2013-12-04 07:02:00,27.8,26.8,29.66,NNW,343,5.0,6.0,96,0.00,,,0.00,Wunderground v.1.15,2013-12-04 13:02:00,
2013-12-04 07:07:00,27.8,26.8,29.66,NNW,340,6.0,8.0,96,0.00,,,0.00,Wunderground v.1.15,2013-12-04 13:07:00,
2013-12-04 07:12:00,27.8,26.8,29.66,NNW,348,6.0,9.0,96,0.00,,,0.00,Wunderground v.1.15,2013-12-04 13:12:00,
2013-12-04 07:17:00,27.8,26.8,29.65,North,11,7.0,9.0,96,0.00,,,0.00,Wunderground v.1.15,2013-12-04 13:17:00,
2013-12-04 07:22:00,27.8,26.8,29.64,NNE,12,5.0,7.0,96,0.00,,,0.00,Wunderground v.1.15,2013-12-04 13:22:00,
2013-12-04 07:27:00,27.7,26.7,29.63,NNE,15,5.0,9.0,96,0.00,,,0.00,Wunderground v.1.15,2013-12-04 13:27:00,
2013-12-04 07:32:00,27.7,26.7,29.63,NNE,15,7.0,8.0,96,0.00,,,0.00,Wunderground v.1.15,2013-12-04 13:32:00,
2013-12-04 07:37:00,27.6,26.6,29.64,NNE,15,8.0,9.0,96,0.00,,,0.00,Wunderground v.1.15,2013-12-04 13:37:00,
2013-12-04 07:42:00,27.6,26.6,29.63,NNE,15,7.0,8.0,96,0.00,,,0.00,Wunderground v.1.15,2013-12-04 13:42:00,
2013-12-04 07:47:00,27.6,26.6,29.63,NNE,15,5.0,9.0,96,0.00,,,0.00,Wunderground v.1.15,2013-12-04 13:47:00,
2013-12-04 07:52:00,27.6,26.6,29.63,NNE,15,4.0,7.0,96,0.00,,,0.00,Wunderground v.1.15,2013-12-04 13:52:00,
2013-12-04 07:57:00,27.6,26.6,29.63,NNE,15,5.0,7.0,96,0.00,,,0.00,Wunderground v.1.15,2013-12-04 13:57:00,
2013-12-04 08:02:00,27.6,26.6,29.63,NNE,15,4.0,8.0,96,0.00,,,0.00,Wunderground v.1.15,2013-12-04 14:02:00,
2013-12-04 08:07:00,27.6,26.6,29.62,NNE,15,8.0,9.0,96,0.00,,,0.00,Wunderground v.1.15,2013-12-04 14:07:00,
2013-12-04 08:12:00,27.6,26.6,29.61,North,360,6.0,9.0,96,0.00,,,0.00,Wunderground v.1.15,2013-12-04 14:12:00,
2013-12-04 08:17:00,27.6,26.6,29.61,North,5,6.0,9.0,96,0.00,,,0.00,Wunderground v.1.15,2013-12-04 14:17:00,
2013-12-04 08:22:00,27.6,26.6,29.60,North,11,5.0,8.0,96,0.00,,,0.00,Wunderground v.1.15,2013-12-04 14:22:00,
2013-12-04 08:27:00,27.6,26.6,29.61,North,5,5.0,9.0,96,0.00,,,0.00,Wunderground v.1.15,2013-12-04 14:27:00,
2013-12-04 08:32:00,27.6,26.6,29.61,North,5,6.0,8.0,96,0.00,,,0.00,Wunderground v.1.15,2013-12-04 14:32:00,
2013-12-04 08:37:00,27.7,26.7,29.60,NNW,346,4.0,8.0,96,0.00,,,0.00,Wunderground v.1.15,2013-12-04 14:37:00,
2013-12-04 08:42:00,27.7,26.7,29.61,NNW,340,5.0,6.0,96,0.00,,,0.00,Wunderground v.1.15,2013-12-04 14:42:00,
2013-12-04 08:47:00,27.7,26.7,29.61,North,360,4.0,6.0,96,0.00,,,0.00,Wunderground v.1.15,2013-12-04 14:47:00,
2013-12-04 08:52:00,27.7,26.7,29.61,NW,325,4.0,5.0,96,0.00,,,0.00,Wunderground v.1.15,2013-12-04 14:52:00,
2013-12-04 08:57:00,27.8,26.8,29.61,NW,315,4.0,5.0,96,0.00,,,0.00,Wunderground v.1.15,2013-12-04 14:57:00,
2013-12-04 09:02:00,27.8,26.8,29.62,NW,315,5.0,5.0,96,0.00,,,0.00,Wunderground v.1.15,2013-12-04 15:02:00,
2013-12-04 09:07:00,27.8,26.8,29.61,NW,315,6.0,8.0,96,0.00,,,0.00,Wunderground v.1.15,2013-12-04 15:07:00,
2013-12-04 09:12:00,27.8,26.8,29.61,NNW,327,6.0,8.0,96,0.00,,,0.00,Wunderground v.1.15,2013-12-04 15:12:00,
2013-12-04 09:17:00,27.7,26.7,29.61,NW,311,5.0,8.0,96,0.00,,,0.00,Wunderground v.1.15,2013-12-04 15:17:00,
2013-12-04 09:22:00,27.8,26.8,29.62,NW,311,5.0,8.0,96,0.00,,,0.00,Wunderground v.1.15,2013-12-04 15:22:00,
2013-12-04 09:27:00,27.8,26.8,29.63,NW,311,4.0,8.0,96,0.00,,,0.00,Wunderground v.1.15,2013-12-04 15:27:00,
2013-12-04 09:32:00,27.8,26.8,29.63,NW,311,8.0,8.0,96,0.00,,,0.00,Wunderground v.1.15,2013-12-04 15:32:00,
2013-12-04 09:37:00,27.8,26.8,29.64,NW,311,5.0,8.0,96,0.00,,,0.00,Wunderground v.1.15,2013-12-04 15:37:00,
2013-12-04 09:42:00,27.8,26.8,29.63,NW,311,5.0,8.0,96,0.00,,,0.00,Wunderground v.1.15,2013-12-04 15:42:00,
2013-12-04 09:47:00,27.7,26.7,29.63,NW,311,5.0,8.0,96,0.00,,,0.00,Wunderground v.1.15,2013-12-04 15:47:00,
2013-12-04 09:52:00,27.6,26.6,29.63,NW,311,6.0,8.0,96,0.00,,,0.00,Wunderground v.1.15,2013-12-04 15:52:00,
2013-12-04 09:57:00,27.6,26.6,29.63,NW,311,5.0,8.0,96,0.00,,,0.00,Wunderground v.1.15,2013-12-04 15:57:00,
2013-12-04 10:02:00,27.5,26.5,29.63,NW,311,6.0,8.0,96,0.00,,,0.00,Wunderground v.1.15,2013-12-04 16:02:00,
2013-12-04 10:07:00,27.5,26.5,29.63,NW,311,5.0,10.0,96,0.00,,,0.00,Wunderground v.1.15,2013-12-04 16:07:00,
2013-12-04 10:12:00,27.4,26.4,29.63,NW,311,5.0,9.0,96,0.00,,,0.00,Wunderground v.1.15,2013-12-04 16:12:00,
2013-12-04 10:17:00,27.4,26.4,29.63,NW,311,5.0,9.0,96,0.00,,,0.00,Wunderground v.1.15,2013-12-04 16:17:00,
2013-12-04 10:22:00,27.4,26.4,29.63,NW,311,8.0,11.0,96,0.00,,,0.00,Wunderground v.1.15,2013-12-04 16:22:00,
2013-12-04 10:27:00,27.4,26.4,29.63,NW,311,6.0,11.0,96,0.00,,,0.00,Wunderground v.1.15,2013-12-04 16:27:00,
2013-12-04 10:32:00,27.5,26.5,29.63,NW,311,8.0,9.0,96,0.00,,,0.00,Wunderground v.1.15,2013-12-04 16:32:00,
2013-12-04 10:37:00,27.5,26.5,29.63,NW,311,8.0,9.0,96,0.00,,,0.00,Wunderground v.1.15,2013-12-04 16:37:00,
2013-12-04 10:42:00,27.6,26.6,29.63,NW,311,6.0,9.0,96,0.00,,,0.00,Wunderground v.1.15,2013-12-04 16:42:00,
2013-12-04 10:47:00,27.7,26.7,29.63,NW,311,8.0,10.0,96,0.00,,,0.00,Wunderground v.1.15,2013-12-04 16:47:00,
2013-12-04 10:52:00,27.7,26.7,29.63,NW,311,5.0,11.0,96,0.00,,,0.00,Wunderground v.1.15,2013-12-04 16:52:00,
2013-12-04 10:57:00,27.8,26.8,29.63,NW,311,9.0,11.0,96,0.00,,,0.00,Wunderground v.1.15,2013-12-04 16:57:00,
2013-12-04 11:02:00,27.7,26.7,29.63,NW,311,8.0,11.0,96,0.00,,,0.00,Wunderground v.1.15,2013-12-04 17:02:00,
2013-12-04 11:07:00,27.6,26.6,29.62,NW,311,10.0,13.0,96,0.00,,,0.00,Wunderground v.1.15,2013-12-04 17:07:00,
2013-12-04 11:12:00,27.6,26.6,29.62,NW,311,8.0,11.0,96,0.00,,,0.00,Wunderground v.1.15,2013-12-04 17:12:00,
2013-12-04 11:17:00,27.6,26.6,29.61,NW,311,8.0,13.0,96,0.00,,,0.00,Wunderground v.1.15,2013-12-04 17:17:00,
2013-12-04 11:22:00,27.4,26.4,29.61,NW,311,9.0,12.0,96,0.00,,,0.00,Wunderground v.1.15,2013-12-04 17:22:00,
2013-12-04 11:27:00,27.0,25.8,29.60,NW,311,11.0,13.0,95,0.00,,,0.00,Wunderground v.1.15,2013-12-04 17:27:00,
2013-12-04 11:32:00,26.5,25.3,29.60,NW,311,11.0,14.0,95,0.00,,,0.00,Wunderground v.1.15,2013-12-04 17:32:00,
2013-12-04 11:37:00,25.7,24.2,29.60,NW,310,12.0,15.0,94,0.00,,,0.00,Wunderground v.1.15,2013-12-04 17:37:00,
2013-12-04 11:42:00,25.0,23.5,29.60,NW,310,10.0,14.0,94,0.00,,,0.00,Wunderground v.1.15,2013-12-04 17:42:00,
2013-12-04 11:47:00,24.8,23.6,29.59,NW,310,12.0,15.0,95,0.00,,,0.00,Wunderground v.1.15,2013-12-04 17:47:00,
2013-12-04 11:52:00,24.5,23.0,29.59,NW,310,10.0,13.0,94,0.00,,,0.00,Wunderground v.1.15,2013-12-04 17:52:00,
2013-12-04 11:57:00,24.4,23.2,29.59,NW,310,11.0,16.0,95,0.00,,,0.00,Wunderground v.1.15,2013-12-04 17:57:00,
2013-12-04 12:02:00,24.2,22.7,29.59,NW,310,9.0,15.0,94,0.00,,,0.00,Wunderground v.1.15,2013-12-04 18:02:00,
2013-12-04 12:07:00,24.2,23.0,29.59,NW,310,9.0,18.0,95,0.00,,,0.00,Wunderground v.1.15,2013-12-04 18:07:00,
2013-12-04 12:12:00,24.1,22.6,29.60,NW,310,10.0,14.0,94,0.00,,,0.00,Wunderground v.1.15,2013-12-04 18:12:00,
2013-12-04 12:17:00,24.1,22.9,29.60,NW,310,12.0,15.0,95,0.00,,,0.00,Wunderground v.1.15,2013-12-04 18:17:00,
2013-12-04 12:22:00,24.0,22.8,29.60,NW,310,11.0,15.0,95,0.00,,,0.00,Wunderground v.1.15,2013-12-04 18:22:00,
2013-12-04 12:27:00,24.0,22.8,29.60,NW,310,11.0,15.0,95,0.00,,,0.00,Wunderground v.1.15,2013-12-04 18:27:00,
2013-12-04 12:32:00,24.0,22.8,29.60,NW,310,15.0,15.0,95,0.00,,,0.00,Wunderground v.1.15,2013-12-04 18:32:00,
2013-12-04 12:37:00,24.0,22.5,29.60,NW,310,9.0,16.0,94,0.00,,,0.00,Wunderground v.1.15,2013-12-04 18:37:00,
2013-12-04 12:42:00,24.0,22.8,29.60,NW,310,13.0,15.0,95,0.00,,,0.00,Wunderground v.1.15,2013-12-04 18:42:00,
2013-12-04 12:47:00,23.8,22.6,29.59,NW,310,13.0,16.0,95,0.00,,,0.00,Wunderground v.1.15,2013-12-04 18:47:00,
2013-12-04 12:52:00,23.7,22.2,29.60,NW,310,13.0,15.0,94,0.00,,,0.00,Wunderground v.1.15,2013-12-04 18:52:00,
2013-12-04 12:57:00,23.6,22.4,29.60,NW,310,15.0,16.0,95,0.00,,,0.00,Wunderground v.1.15,2013-12-04 18:57:00,
2013-12-04 13:02:00,23.4,21.9,29.59,NW,310,13.0,15.0,94,0.00,,,0.00,Wunderground v.1.15,2013-12-04 19:02:00,
2013-12-04 13:07:00,23.2,21.7,29.59,NW,310,13.0,16.0,94,0.00,,,0.00,Wunderground v.1.15,2013-12-04 19:07:00,
2013-12-04 13:12:00,23.2,22.0,29.59,NW,310,13.0,13.0,95,0.00,,,0.00,Wunderground v.1.15,2013-12-04 19:12:00,
2013-12-04 13:17:00,23.3,21.8,29.59,NW,310,13.0,15.0,94,0.00,,,0.00,Wunderground v.1.15,2013-12-04 19:17:00,
2013-12-04 13:22:00,23.2,21.7,29.59,NW,310,15.0,16.0,94,0.00,,,0.00,Wunderground v.1.15,2013-12-04 19:22:00,
2013-12-04 13:27:00,23.0,21.5,29.60,NW,310,12.0,17.0,94,0.00,,,0.00,Wunderground v.1.15,2013-12-04 19:27:00,
2013-12-04 13:33:00,23.0,21.5,29.60,NW,310,15.0,16.0,94,0.00,,,0.00,Wunderground v.1.15,2013-12-04 19:33:00,
2013-12-04 13:38:00,22.6,21.1,29.61,NW,310,12.0,19.0,94,0.00,,,0.00,Wunderground v.1.15,2013-12-04 19:38:00,
2013-12-04 13:43:00,22.2,20.5,29.61,NW,309,15.0,19.0,93,0.00,,,0.00,Wunderground v.1.15,2013-12-04 19:43:00,
2013-12-04 13:48:00,21.8,20.1,29.60,NW,309,16.0,20.0,93,0.00,,,0.00,Wunderground v.1.15,2013-12-04 19:48:00,
2013-12-04 13:53:00,21.5,19.8,29.61,NW,309,16.0,21.0,93,0.00,,,0.00,Wunderground v.1.15,2013-12-04 19:53:00,
2013-12-04 13:58:00,21.4,19.7,29.61,NW,309,18.0,21.0,93,0.00,,,0.00,Wunderground v.1.15,2013-12-04 19:58:00,
2013-12-04 14:03:00,21.2,19.5,29.62,NW,309,18.0,18.0,93,0.00,,,0.00,Wunderground v.1.15,2013-12-04 20:03:00,
2013-12-04 14:08:00,20.8,19.1,29.61,NW,309,19.0,21.0,93,0.00,,,0.00,Wunderground v.1.15,2013-12-04 20:08:00,
2013-12-04 14:13:00,20.5,18.8,29.61,NW,309,12.0,20.0,93,0.00,,,0.00,Wunderground v.1.15,2013-12-04 20:13:00,
2013-12-04 14:18:00,20.4,18.7,29.61,NW,309,17.0,22.0,93,0.00,,,0.00,Wunderground v.1.15,2013-12-04 20:18:00,
2013-12-04 14:23:00,20.1,18.1,29.60,NW,309,18.0,21.0,92,0.00,,,0.00,Wunderground v.1.15,2013-12-04 20:23:00,
2013-12-04 14:28:00,19.8,17.9,29.60,NW,309,15.0,22.0,92,0.00,,,0.00,Wunderground v.1.15,2013-12-04 20:28:00,
2013-12-04 14:33:00,19.9,18.2,29.60,NW,309,14.0,19.0,93,0.00,,,0.00,Wunderground v.1.15,2013-12-04 20:33:00,
2013-12-04 14:38:00,19.8,17.9,29.62,NW,309,18.0,21.0,92,0.00,,,0.00,Wunderground v.1.15,2013-12-04 20:38:00,
2013-12-04 14:43:00,19.8,17.9,29.62,NW,309,12.0,18.0,92,0.00,,,0.00,Wunderground v.1.15,2013-12-04 20:43:00,
2013-12-04 14:48:00,19.7,17.8,29.61,NW,309,10.0,18.0,92,0.00,,,0.00,Wunderground v.1.15,2013-12-04 20:48:00,
2013-12-04 14:53:00,19.7,17.8,29.62,NW,309,13.0,17.0,92,0.00,,,0.00,Wunderground v.1.15,2013-12-04 20:53:00,
2013-12-04 14:58:00,19.7,17.8,29.62,NW,309,12.0,17.0,92,0.00,,,0.00,Wunderground v.1.15,2013-12-04 20:58:00,
2013-12-04 15:03:00,19.7,17.8,29.63,NW,309,15.0,18.0,92,0.00,,,0.00,Wunderground v.1.15,2013-12-04 21:03:00,
2013-12-04 15:08:00,19.7,17.8,29.63,NW,309,11.0,19.0,92,0.00,,,0.00,Wunderground v.1.15,2013-12-04 21:08:00,
2013-12-04 15:13:00,19.6,17.7,29.63,NW,309,12.0,18.0,92,0.00,,,0.00,Wunderground v.1.15,2013-12-04 21:13:00,
2013-12-04 15:18:00,19.6,17.7,29.64,NW,309,12.0,18.0,92,0.00,,,0.00,Wunderground v.1.15,2013-12-04 21:18:00,
2013-12-04 15:23:00,19.6,17.7,29.64,NW,309,14.0,17.0,92,0.00,,,0.00,Wunderground v.1.15,2013-12-04 21:23:00,
2013-12-04 15:28:00,19.5,17.6,29.65,NW,309,13.0,18.0,92,0.00,,,0.00,Wunderground v.1.15,2013-12-04 21:28:00,
2013-12-04 15:33:00,19.5,17.6,29.65,NW,309,13.0,18.0,92,0.00,,,0.00,Wunderground v.1.15,2013-12-04 21:33:00,
2013-12-04 15:38:00,19.3,17.1,29.65,NW,309,15.0,19.0,91,0.00,,,0.00,Wunderground v.1.15,2013-12-04 21:38:00,
2013-12-04 15:43:00,19.2,17.3,29.65,NW,309,12.0,18.0,92,0.00,,,0.00,Wunderground v.1.15,2013-12-04 21:43:00,
2013-12-04 15:48:00,19.1,17.2,29.66,NW,309,19.0,19.0,92,0.00,,,0.00,Wunderground v.1.15,2013-12-04 21:48:00,
2013-12-04 15:53:00,19.0,16.8,29.68,NW,309,16.0,25.0,91,0.00,,,0.00,Wunderground v.1.15,2013-12-04 21:53:00,
2013-12-04 15:58:00,18.7,16.5,29.69,NW,309,19.0,25.0,91,0.00,,,0.00,Wunderground v.1.15,2013-12-04 21:58:00,
2013-12-04 16:03:00,18.5,16.3,29.68,NW,308,15.0,23.0,91,0.00,,,0.00,Wunderground v.1.15,2013-12-04 22:03:00,
2013-12-04 16:08:00,18.3,16.1,29.69,NW,308,15.0,23.0,91,0.00,,,0.00,Wunderground v.1.15,2013-12-04 22:08:00,
2013-12-04 16:13:00,18.2,16.0,29.69,NW,308,16.0,20.0,91,0.00,,,0.00,Wunderground v.1.15,2013-12-04 22:13:00,
2013-12-04 16:18:00,18.1,15.9,29.70,NW,308,17.0,22.0,91,0.00,,,0.00,Wunderground v.1.15,2013-12-04 22:18:00,
2013-12-04 16:23:00,17.9,15.7,29.70,NW,308,12.0,19.0,91,0.00,,,0.00,Wunderground v.1.15,2013-12-04 22:23:00,
2013-12-04 16:28:00,17.7,15.5,29.69,NW,308,15.0,23.0,91,0.00,,,0.00,Wunderground v.1.15,2013-12-04 22:28:00,
2013-12-04 16:33:00,17.7,15.5,29.68,NW,308,18.0,18.0,91,0.00,,,0.00,Wunderground v.1.15,2013-12-04 22:33:00,
2013-12-04 16:38:00,17.5,15.3,29.69,NW,308,12.0,20.0,91,0.00,,,0.00,Wunderground v.1.15,2013-12-04 22:38:00,
2013-12-04 16:43:00,17.4,15.0,29.69,NW,308,17.0,21.0,90,0.00,,,0.00,Wunderground v.1.15,2013-12-04 22:43:00,
2013-12-04 16:48:00,17.2,14.8,29.70,NW,308,14.0,21.0,90,0.00,,,0.00,Wunderground v.1.15,2013-12-04 22:48:00,
2013-12-04 16:53:00,17.1,14.7,29.69,NW,307,20.0,21.0,90,0.00,,,0.00,Wunderground v.1.15,2013-12-04 22:53:00,
2013-12-04 16:58:00,17.1,14.7,29.69,NW,307,14.0,21.0,90,0.00,,,0.00,Wunderground v.1.15,2013-12-04 22:58:00,
2013-12-04 17:03:00,17.1,14.7,29.69,NW,307,14.0,20.0,90,0.00,,,0.00,Wunderground v.1.15,2013-12-04 23:03:00,
2013-12-04 17:08:00,17.1,14.7,29.70,NW,307,14.0,20.0,90,0.00,,,0.00,Wunderground v.1.15,2013-12-04 23:08:00,
2013-12-04 17:13:00,17.2,14.8,29.70,NW,307,12.0,18.0,90,0.00,,,0.00,Wunderground v.1.15,2013-12-04 23:13:00,
2013-12-04 17:18:00,17.2,14.8,29.70,NW,307,13.0,18.0,90,0.00,,,0.00,Wunderground v.1.15,2013-12-04 23:18:00,
2013-12-04 17:23:00,17.3,15.1,29.71,NW,307,15.0,17.0,91,0.00,,,0.00,Wunderground v.1.15,2013-12-04 23:23:00,
2013-12-04 17:28:00,17.4,15.0,29.72,NW,307,14.0,19.0,90,0.00,,,0.00,Wunderground v.1.15,2013-12-04 23:28:00,
2013-12-04 17:33:00,17.4,15.0,29.72,NW,307,15.0,18.0,90,0.00,,,0.00,Wunderground v.1.15,2013-12-04 23:33:00,
2013-12-04 17:38:00,17.5,15.1,29.73,NW,307,16.0,20.0,90,0.00,,,0.00,Wunderground v.1.15,2013-12-04 23:38:00,
2013-12-04 17:43:00,17.5,15.1,29.73,NW,307,14.0,19.0,90,0.00,,,0.00,Wunderground v.1.15,2013-12-04 23:43:00,
2013-12-04 17:48:00,17.5,15.1,29.73,NW,307,12.0,19.0,90,0.00,,,0.00,Wunderground v.1.15,2013-12-04 23:48:00,
2013-12-04 17:53:00,17.5,15.1,29.73,NW,307,11.0,21.0,90,0.00,,,0.00,Wunderground v.1.15,2013-12-04 23:53:00,
2013-12-04 17:58:00,17.6,15.2,29.73,NW,307,17.0,21.0,90,0.00,,,0.00,Wunderground v.1.15,2013-12-04 23:58:00,
2013-12-04 18:03:00,17.5,15.1,29.73,NW,307,15.0,22.0,90,0.00,,,0.00,Wunderground v.1.15,2013-12-05 00:03:00,
2013-12-04 18:08:00,17.5,15.1,29.74,NW,307,21.0,22.0,90,0.00,,,0.00,Wunderground v.1.15,2013-12-05 00:08:00,
2013-12-04 18:13:00,17.4,15.0,29.74,NW,307,15.0,22.0,90,0.00,,,0.00,Wunderground v.1.15,2013-12-05 00:13:00,
2013-12-04 18:18:00,17.3,14.9,29.75,NW,307,15.0,24.0,90,0.00,,,0.00,Wunderground v.1.15,2013-12-05 00:18:00,
2013-12-04 18:23:00,17.2,14.8,29.75,NW,306,17.0,23.0,90,0.00,,,0.00,Wunderground v.1.15,2013-12-05 00:23:00,
2013-12-04 18:28:00,17.2,14.8,29.76,NW,306,15.0,23.0,90,0.00,,,0.00,Wunderground v.1.15,2013-12-05 00:28:00,
2013-12-04 18:33:00,17.1,14.7,29.76,NW,306,16.0,19.0,90,0.00,,,0.00,Wunderground v.1.15,2013-12-05 00:33:00,
2013-12-04 18:38:00,17.1,14.7,29.77,NW,306,13.0,20.0,90,0.00,,,0.00,Wunderground v.1.15,2013-12-05 00:38:00,
2013-12-04 18:43:00,17.1,14.7,29.77,NW,306,16.0,21.0,90,0.00,,,0.00,Wunderground v.1.15,2013-12-05 00:43:00,
2013-12-04 18:48:00,17.1,14.7,29.78,NW,306,16.0,21.0,90,0.00,,,0.00,Wunderground v.1.15,2013-12-05 00:48:00,
2013-12-04 18:53:00,17.1,14.7,29.78,NW,306,15.0,21.0,90,0.00,,,0.00,Wunderground v.1.15,2013-12-05 00:53:00,
2013-12-04 18:58:00,17.1,14.7,29.78,NW,306,14.0,21.0,90,0.00,,,0.00,Wunderground v.1.15,2013-12-05 00:58:00,
2013-12-04 19:03:00,17.0,14.6,29.77,NW,306,15.0,20.0,90,0.00,,,0.00,Wunderground v.1.15,2013-12-05 01:03:00,
2013-12-04 19:08:00,16.9,14.5,29.76,NW,306,16.0,20.0,90,0.00,,,0.00,Wunderground v.1.15,2013-12-05 01:08:00,
2013-12-04 19:13:00,16.9,14.5,29.76,NW,306,16.0,19.0,90,0.00,,,0.00,Wunderground v.1.15,2013-12-05 01:13:00,
2013-12-04 19:18:00,16.8,14.1,29.75,NW,306,13.0,20.0,89,0.00,,,0.00,Wunderground v.1.15,2013-12-05 01:18:00,
2013-12-04 19:23:00,16.6,13.9,29.76,NW,306,20.0,20.0,89,0.00,,,0.00,Wunderground v.1.15,2013-12-05 01:23:00,
2013-12-04 19:28:00,16.4,13.7,29.76,WNW,301,16.0,27.0,89,0.00,,,0.00,Wunderground v.1.15,2013-12-05 01:28:00,
2013-12-04 19:33:00,16.2,13.5,29.76,WNW,301,15.0,22.0,89,0.00,,,0.00,Wunderground v.1.15,2013-12-05 01:33:00,
2013-12-04 19:38:00,16.1,13.4,29.76,WNW,287,18.0,23.0,89,0.00,,,0.00,Wunderground v.1.15,2013-12-05 01:38:00,
2013-12-04 19:43:00,15.9,13.2,29.77,WNW,294,15.0,25.0,89,0.00,,,0.00,Wunderground v.1.15,2013-12-05 01:43:00,
2013-12-04 19:48:00,15.6,12.7,29.77,NW,304,18.0,26.0,88,0.00,,,0.00,Wunderground v.1.15,2013-12-05 01:48:00,
2013-12-04 19:53:00,15.5,12.6,29.78,WNW,296,16.0,21.0,88,0.00,,,0.00,Wunderground v.1.15,2013-12-05 01:53:00,
2013-12-04 19:58:00,15.3,12.4,29.78,WNW,295,14.0,21.0,88,0.00,,,0.00,Wunderground v.1.15,2013-12-05 01:58:00,
2013-12-04 20:03:00,15.0,12.1,29.78,West,279,15.0,19.0,88,0.00,,,0.00,Wunderground v.1.15,2013-12-05 02:03:00,
2013-12-04 20:08:00,14.8,11.9,29.80,WNW,291,16.0,19.0,88,0.00,,,0.00,Wunderground v.1.15,2013-12-05 02:08:00,
2013-12-04 20:13:00,14.6,11.7,29.81,WNW,284,16.0,25.0,88,0.00,,,0.00,Wunderground v.1.15,2013-12-05 02:13:00,
2013-12-04 20:18:00,14.3,11.1,29.81,WNW,293,17.0,25.0,87,0.00,,,0.00,Wunderground v.1.15,2013-12-05 02:18:00,
2013-12-04 20:23:00,14.1,10.9,29.81,WNW,290,19.0,24.0,87,0.00,,,0.00,Wunderground v.1.15,2013-12-05 02:23:00,
2013-12-04 20:28:00,13.9,10.5,29.81,NW,311,18.0,27.0,86,0.00,,,0.00,Wunderground v.1.15,2013-12-05 02:28:00,
2013-12-04 20:33:00,13.7,10.5,29.81,WNW,300,16.0,24.0,87,0.00,,,0.00,Wunderground v.1.15,2013-12-05 02:33:00,
2013-12-04 20:38:00,13.6,10.5,29.81,WNW,301,20.0,24.0,87,0.00,,,0.00,Wunderground v.1.15,2013-12-05 02:38:00,
2013-12-04 20:43:00,13.3,9.6,29.81,WNW,292,23.0,23.0,85,0.00,,,0.00,Wunderground v.1.15,2013-12-05 02:43:00,
2013-12-04 20:48:00,13.2,9.8,29.82,WNW,296,16.0,24.0,86,0.00,,,0.00,Wunderground v.1.15,2013-12-05 02:48:00,
2013-12-04 20:53:00,13.1,9.7,29.82,WNW,285,21.0,24.0,86,0.00,,,0.00,Wunderground v.1.15,2013-12-05 02:53:00,
2013-12-04 20:58:00,12.7,9.3,29.82,WNW,290,16.0,26.0,86,0.00,,,0.00,Wunderground v.1.15,2013-12-05 02:58:00,
2013-12-04 21:03:00,12.5,8.8,29.82,WNW,285,18.0,26.0,85,0.00,,,0.00,Wunderground v.1.15,2013-12-05 03:03:00,
2013-12-04 21:08:00,12.4,8.7,29.82,WNW,288,20.0,26.0,85,0.00,,,0.00,Wunderground v.1.15,2013-12-05 03:08:00,
2013-12-04 21:13:00,12.3,8.7,29.83,WNW,289,20.0,23.0,85,0.00,,,0.00,Wunderground v.1.15,2013-12-05 03:13:00,
2013-12-04 21:18:00,12.1,8.2,29.83,WNW,302,17.0,25.0,84,0.00,,,0.00,Wunderground v.1.15,2013-12-05 03:18:00,
2013-12-04 21:23:00,11.9,8.0,29.83,WNW,288,21.0,27.0,84,0.00,,,0.00,Wunderground v.1.15,2013-12-05 03:23:00,
2013-12-04 21:28:00,11.7,8.1,29.84,WNW,296,19.0,27.0,85,0.00,,,0.00,Wunderground v.1.15,2013-12-05 03:28:00,
2013-12-04 21:33:00,11.7,8.3,29.86,WNW,301,15.0,23.0,86,0.00,,,0.00,Wunderground v.1.15,2013-12-05 03:33:00,
2013-12-04 21:38:00,11.4,7.5,29.86,WNW,298,16.0,28.0,84,0.00,,,0.00,Wunderground v.1.15,2013-12-05 03:38:00,
2013-12-04 21:43:00,11.2,7.8,29.85,WNW,287,11.0,20.0,86,0.00,,,0.00,Wunderground v.1.15,2013-12-05 03:43:00,
2013-12-04 21:48:00,11.0,7.6,29.86,NW,323,16.0,21.0,86,0.00,,,0.00,Wunderground v.1.15,2013-12-05 03:48:00,
2013-12-04 21:53:00,11.0,7.6,29.87,West,278,15.0,21.0,86,0.00,,,0.00,Wunderground v.1.15,2013-12-05 03:53:00,
2013-12-04 21:58:00,10.9,7.5,29.87,NW,306,19.0,21.0,86,0.00,,,0.00,Wunderground v.1.15,2013-12-05 03:58:00,
2013-12-04 22:03:00,10.8,7.4,29.87,WNW,284,16.0,19.0,86,0.00,,,0.00,Wunderground v.1.15,2013-12-05 04:03:00,
2013-12-04 22:08:00,10.7,7.1,29.86,WNW,290,11.0,25.0,85,0.00,,,0.00,Wunderground v.1.15,2013-12-05 04:08:00,
2013-12-04 22:13:00,10.6,7.0,29.86,WNW,294,14.0,21.0,85,0.00,,,0.00,Wunderground v.1.15,2013-12-05 04:13:00,
2013-12-04 22:18:00,10.5,6.9,29.88,WNW,290,15.0,22.0,85,0.00,,,0.00,Wunderground v.1.15,2013-12-05 04:18:00,
2013-12-04 22:23:00,10.3,6.4,29.88,WNW,294,14.0,24.0,84,0.00,,,0.00,Wunderground v.1.15,2013-12-05 04:23:00,
2013-12-04 22:28:00,10.1,6.2,29.89,WNW,300,13.0,24.0,84,0.00,,,0.00,Wunderground v.1.15,2013-12-05 04:28:00,
2013-12-04 22:33:00,10.0,6.4,29.90,West,277,11.0,21.0,85,0.00,,,0.00,Wunderground v.1.15,2013-12-05 04:33:00,
2013-12-04 22:38:00,9.9,6.3,29.91,WNW,290,19.0,25.0,85,0.00,,,0.00,Wunderground v.1.15,2013-12-05 04:38:00,
2013-12-04 22:43:00,9.9,6.3,29.92,WNW,294,13.0,25.0,85,0.00,,,0.00,Wunderground v.1.15,2013-12-05 04:43:00,
2013-12-04 22:48:00,9.8,6.2,29.92,WNW,292,11.0,25.0,85,0.00,,,0.00,Wunderground v.1.15,2013-12-05 04:48:00,
2013-12-04 22:53:00,9.7,6.1,29.93,WNW,288,13.0,22.0,85,0.00,,,0.00,Wunderground v.1.15,2013-12-05 04:53:00,
2013-12-04 22:58:00,9.5,5.6,29.93,NW,317,15.0,24.0,84,0.00,,,0.00,Wunderground v.1.15,2013-12-05 04:58:00,
2013-12-04 23:01:00,9.4,5.5,29.93,West,281,17.0,23.0,84,0.00,,,0.00,Wunderground v.1.15,2013-12-05 05:01:00,
2013-12-04 23:02:00,9.4,5.5,29.93,West,269,17.0,23.0,84,0.00,,,0.00,Wunderground v.1.15,2013-12-05 05:02:00,
2013-12-04 23:07:00,9.2,5.3,29.94,NW,317,17.0,26.0,84,0.00,,,0.00,Wunderground v.1.15,2013-12-05 05:07:00,
2013-12-04 23:12:00,9.1,5.0,29.94,West,271,16.0,23.0,83,0.00,,,0.00,Wunderground v.1.15,2013-12-05 05:12:00,
2013-12-04 23:17:00,9.0,4.9,29.94,WNW,292,15.0,24.0,83,0.00,,,0.00,Wunderground v.1.15,2013-12-05 05:17:00,
2013-12-04 23:22:00,9.0,4.9,29.94,WNW,289,18.0,21.0,83,0.00,,,0.00,Wunderground v.1.15,2013-12-05 05:22:00,
2013-12-04 23:27:00,9.0,4.9,29.94,NW,304,19.0,25.0,83,0.00,,,0.00,Wunderground v.1.15,2013-12-05 05:27:00,
2013-12-04 23:32:00,8.9,4.8,29.94,WNW,292,17.0,23.0,83,0.00,,,0.00,Wunderground v.1.15,2013-12-05 05:32:00,
2013-12-04 23:37:00,8.9,5.1,29.94,WNW,288,17.0,23.0,84,0.00,,,0.00,Wunderground v.1.15,2013-12-05 05:37:00,
2013-12-04 23:42:00,8.8,5.0,29.94,WNW,290,19.0,21.0,84,0.00,,,0.00,Wunderground v.1.15,2013-12-05 05:42:00,
2013-12-04 23:47:00,8.7,4.9,29.93,WNW,294,19.0,21.0,84,0.00,,,0.00,Wunderground v.1.15,2013-12-05 05:47:00,
2013-12-04 23:52:00,8.7,4.9,29.94,WNW,288,19.0,24.0,84,0.00,,,0.00,Wunderground v.1.15,2013-12-05 05:52:00,
2013-12-04 23:57:00,8.7,4.9,29.94,WNW,290,13.0,24.0,84,0.00,,,0.00,Wunderground v.1.15,2013-12-05 05:57:00,